EW9290 Weather Reports


time (UTC)temp
C
wind
direction
speed
KPH
gust
KPH
rain 1hr
cm
rain 24hr
cm
rain mn
cm
humidity
%
barometer
mb
20260510142812 10 22 4.8 8.0 0.00 0.00 0.00 54 1014.6
20260510142309 10 66 4.8 8.0 0.00 0.00 0.00 52 1014.3
20260510141806 10 19 9.7 12.9 0.00 0.00 0.00 52 1014.3
20260510141304 10 338 11.3 14.5 0.00 0.00 0.00 54 1014.4
20260510140801 10 16 11.3 14.5 0.00 0.00 0.00 54 1014.3
20260510140256 10 45 1.6 1.6 0.00 0.00 0.00 55 1014.6
20260510135750 10 41 8.0 11.3 0.00 0.00 0.00 57 1014.4
20260510135245 10 345 8.0 12.9 0.00 0.00 0.00 56 1014.4
20260510134744 10 356 14.5 16.1 0.00 0.00 0.00 60 1014.3
20260510134241 10 45 6.4 11.3 0.00 0.00 0.00 61 1014.4
20260510133736 10 53 12.9 14.5 0.00 0.00 0.00 60 1014.4
20260510133232 9 16 4.8 11.3 0.00 0.00 0.00 63 1014.0
20260510132728 9 8 12.9 16.1 0.00 0.00 0.00 63 1014.0
20260510132226 9 18 8.0 9.7 0.00 0.00 0.00 67 1013.8
20260510131723 8 17 4.8 8.0 0.00 0.00 0.00 70 1013.8
20260510131221 8 18 11.3 12.9 0.00 0.00 0.00 70 1013.9
20260510130717 8 11 8.0 9.7 0.00 0.00 0.00 72 1013.8
20260510130214 8 19 3.2 4.8 0.00 0.00 0.00 72 1013.9
20260510125710 8 11 6.4 9.7 0.00 0.00 0.00 73 1013.5
20260510125207 8 39 1.6 3.2 0.00 0.00 0.00 75 1013.3
20260510124703 8 41 1.6 1.6 0.00 0.00 0.00 75 1013.5
20260510124201 8 4 4.8 4.8 0.00 0.00 0.00 77 1013.4
20260510123656 8 32 1.6 1.6 0.00 0.00 0.00 77 1013.5
20260510123152 8 57 6.4 9.7 0.00 0.00 0.00 76 1013.3
20260510122648 8 15 11.3 16.1 0.00 0.00 0.00 77 1013.0
20260510122144 8 358 4.8 8.0 0.00 0.00 0.00 83 1012.9
20260510121641 8 23 1.6 3.2 0.00 0.00 0.00 83 1013.2
20260510121138 8 10 4.8 8.0 0.00 0.00 0.00 84 1012.8
20260510120636 8 3 6.4 8.0 0.00 0.00 0.00 83 1012.9
20260510120132 8 349 9.7 11.3 0.00 0.00 0.00 85 1012.9
20260510115628 8 17 8.0 9.7 0.00 0.00 0.00 85 1012.8
20260510115126 7 33 4.8 4.8 0.00 0.00 0.00 88 1012.8
20260510114621 8 7 3.2 3.2 0.00 0.00 0.00 90 1012.4
20260510114118 7 8 4.8 4.8 0.00 0.00 0.00 89 1012.4
20260510113613 7 11 4.8 4.8 0.00 0.00 0.00 90 1012.3
20260510113111 7 0 3.2 3.2 0.00 0.00 0.00 91 1012.1
20260510112607 7 23 11.3 12.9 0.00 0.00 0.00 92 1011.8
20260510112104 7 5 0.0 0.0 0.00 0.00 0.00 92 1011.8
20260510111600 7 357 3.2 3.2 0.00 0.00 0.00 92 1012.0
20260510111056 7 11 4.8 4.8 0.00 0.00 0.00 92 1011.5
20260510110552 7 353 6.4 8.0 0.00 0.00 0.00 92 1011.5
20260510110049 7 346 6.4 8.0 0.00 0.00 0.00 92 1011.3
20260510105544 7 344 4.8 4.8 0.00 0.00 0.00 93 1011.3
20260510105039 7 345 4.8 4.8 0.00 0.00 0.00 93 1011.0
20260510104536 7 359 1.6 1.6 0.00 0.00 0.00 93 1011.0
20260510104033 7 7 4.8 4.8 0.00 0.00 0.00 93 1011.0
20260510103530 7 346 6.4 9.7 0.00 0.00 0.00 93 1010.8
20260510103026 7 7 1.6 3.2 0.00 0.00 0.00 93 1010.3
20260510102522 7 9 3.2 3.2 0.00 0.00 0.00 94 1010.2
20260510102018 7 13 1.6 3.2 0.00 0.00 0.00 95 1010.3
20260510101516 7 338 3.2 3.2 0.00 0.00 0.00 96 1010.3
20260510101014 7 2 4.8 4.8 0.00 0.00 0.00 97 1010.1
20260510100510 7 343 6.4 8.0 0.00 0.00 0.00 98 1010.1
20260510100007 7 6 4.8 4.8 0.00 0.00 0.00 99 1010.2
20260510095503 7 2 0.0 1.6 0.00 0.00 0.00 99 1009.9
20260510095002 7 357 0.0 0.0 0.00 0.00 0.00 99 1010.2
20260510094457 7 1 1.6 1.6 0.00 0.00 0.00 99 1010.0
20260510093953 7 357 0.0 0.0 0.00 0.00 0.00 99 1009.9
20260510093449 7 357 0.0 0.0 0.00 0.00 0.00 99 1009.8
20260510092945 7 357 0.0 0.0 0.00 0.00 0.00 99 1009.9
20260510092443 7 357 0.0 0.0 0.00 0.00 0.00 99 1009.8
20260510091942 7 357 0.0 0.0 0.00 0.00 0.00 99 1009.6
20260510091440 7 357 0.0 0.0 0.00 0.00 0.00 99 1009.5
20260510090936 7 357 0.0 0.0 0.00 0.00 0.00 99 1009.5
20260510090433 7 356 0.0 0.0 0.00 0.00 0.00 99 1009.4
20260510085928 7 352 0.0 0.0 0.00 0.00 0.00 99 1009.2
20260510085424 7 352 0.0 0.0 0.00 0.00 0.00 98 1009.2
20260510084919 7 352 0.0 0.0 0.00 0.00 0.00 98 1008.9
20260510084417 7 341 0.0 0.0 0.00 0.00 0.00 98 1009.0
20260510083913 7 341 0.0 0.0 0.00 0.00 0.00 97 1008.8
20260510083410 7 341 0.0 0.0 0.00 0.00 0.00 97 1008.8
20260510082905 7 340 0.0 0.0 0.00 0.00 0.00 95 1008.7
20260510082404 7 340 0.0 0.0 0.00 0.00 0.00 95 1008.7
20260510081902 7 340 0.0 0.0 0.00 0.00 0.00 94 1008.8
20260510081358 8 340 0.0 0.0 0.00 0.00 0.00 94 1008.7
20260510080855 8 339 0.0 0.0 0.00 0.00 0.00 93 1008.8
20260510080348 8 339 0.0 0.0 0.00 0.00 0.00 92 1008.9
20260510075846 8 354 0.0 0.0 0.00 0.00 0.00 91 1008.6
20260510075344 8 355 0.0 0.0 0.00 0.00 0.00 91 1008.7
20260510074840 8 355 0.0 0.0 0.00 0.00 0.00 89 1008.4
20260510074337 8 342 1.6 3.2 0.00 0.00 0.00 88 1008.1
20260510073833 8 5 1.6 1.6 0.00 0.00 0.00 87 1008.1
20260510073329 9 15 0.0 1.6 0.00 0.00 0.00 86 1008.0
20260510072825 9 16 3.2 3.2 0.00 0.00 0.00 85 1008.0
20260510072323 9 4 4.8 4.8 0.00 0.00 0.00 85 1008.1
20260510071819 8 10 6.4 8.0 0.00 0.00 0.00 87 1008.0
20260510071315 8 10 3.2 3.2 0.00 0.00 0.00 89 1008.0
20260510070814 8 11 4.8 4.8 0.00 0.00 0.00 91 1007.9
20260510070310 8 352 4.8 4.8 0.00 0.00 0.00 92 1007.8
20260510065810 8 21 4.8 4.8 0.00 0.00 0.00 94 1007.8
20260510065307 8 16 4.8 4.8 0.00 0.00 0.00 95 1007.3
20260510064804 8 27 4.8 8.0 0.00 0.00 0.00 95 1007.3
20260510064302 8 36 9.7 12.9 0.00 0.00 0.00 96 1007.3
20260510063757 9 21 3.2 4.8 0.00 0.00 0.00 97 1007.1
20260510063254 9 2 8.0 11.3 0.00 0.00 0.00 99 1007.2
20260510062751 10 31 11.3 16.1 0.00 0.00 0.00 99 1007.2
20260510062247 10 35 3.2 3.2 0.00 0.00 0.00 99 1007.3
20260510061742 11 359 8.0 12.9 0.00 0.00 0.00 99 1007.0
20260510061240 11 359 1.6 3.2 0.00 0.00 0.00 99 1006.8
20260510060735 11 348 4.8 4.8 0.00 0.00 0.00 99 1006.8
20260510060233 11 358 1.6 3.2 0.00 0.00 0.00 99 1007.0
20260510055729 11 23 0.0 0.0 0.00 0.00 0.00 99 1006.6
20260510055227 11 23 0.0 0.0 0.00 0.00 0.00 99 1006.6
20260510054722 11 23 0.0 0.0 0.00 0.00 0.00 99 1006.5
20260510054218 11 23 0.0 0.0 0.00 0.00 0.00 99 1006.5
20260510053717 11 23 0.0 0.0 0.00 0.00 0.00 99 1006.4
20260510053214 11 22 0.0 0.0 0.00 0.00 0.00 99 1006.6
20260510052709 11 23 0.0 0.0 0.00 0.00 0.00 99 1006.5
20260510052206 11 21 3.2 3.2 0.00 0.00 0.00 99 1006.4
20260510051702 11 172 0.0 1.6 0.00 0.00 0.00 99 1006.1
20260510051159 11 14 11.3 14.5 0.00 0.00 0.00 99 1006.5
20260510050656 11 177 4.8 4.8 0.00 0.00 0.00 99 1005.7
20260510050153 11 346 1.6 8.0 0.00 0.00 0.00 99 1006.3
20260510045649 11 189 0.0 0.0 0.00 0.00 0.00 99 1005.4
20260510045147 11 168 0.0 0.0 0.00 0.00 0.00 99 1005.4
20260510044642 11 164 1.6 3.2 0.00 0.00 0.00 99 1005.4
20260510044140 11 154 0.0 0.0 0.00 0.00 0.00 99 1005.1
20260510043636 11 161 0.0 0.0 0.00 0.00 0.00 99 1005.2
20260510043132 11 171 0.0 0.0 0.00 0.00 0.00 99 1005.2
20260510042630 11 180 1.6 3.2 0.00 0.00 0.00 98 1005.1
20260510042126 11 184 1.6 1.6 0.00 0.00 0.00 98 1005.3
20260510041623 11 187 3.2 3.2 0.00 0.00 0.00 98 1005.4
20260510041120 11 182 1.6 1.6 0.00 0.00 0.00 98 1005.3
20260510040618 11 184 1.6 1.6 0.00 0.00 0.00 97 1005.1
20260510040114 11 195 1.6 1.6 0.00 0.00 0.00 97 1005.5
20260510035609 12 195 1.6 1.6 0.00 1.60 1.60 97 1005.1
20260510035104 12 221 3.2 3.2 0.00 1.60 1.60 97 1005.3
20260510034602 12 209 1.6 1.6 0.00 1.60 1.60 96 1005.2
20260510034059 12 210 4.8 4.8 0.00 1.60 1.60 96 1005.2
20260510033555 12 213 1.6 3.2 0.36 1.60 1.60 96 1005.0
20260510033053 12 205 3.2 3.2 1.55 1.60 1.60 96 1005.1
20260510032549 12 231 3.2 3.2 1.32 1.55 1.55 96 1005.4
20260510032044 12 210 8.0 9.7 0.13 1.35 1.35 96 1005.2
20260510031539 12 218 1.6 3.2 0.48 1.32 1.32 96 1005.1
20260510031035 12 228 3.2 3.2 0.79 1.32 1.32 98 1005.1
20260510030531 12 232 6.4 8.0 0.30 1.24 1.24 99 1005.9
20260510030029 11 212 0.0 0.0 0.00 1.19 1.19 99 1005.3
20260510025525 11 199 0.0 0.0 0.00 1.19 1.19 99 1005.2
20260510025023 11 192 1.6 1.6 0.00 1.19 1.19 99 1005.4
20260510024520 11 210 3.2 3.2 0.00 1.19 1.19 99 1005.2
20260510024015 11 212 3.2 3.2 0.00 1.19 1.19 99 1005.3
20260510023511 12 239 0.0 0.0 0.00 1.19 1.19 99 1005.3
20260510023009 12 262 0.0 0.0 0.00 1.19 1.19 99 1005.0
20260510022508 12 272 0.0 0.0 0.18 1.19 1.19 99 1005.1
20260510022008 12 302 0.0 0.0 0.48 1.19 1.19 99 1005.3
20260510021505 12 333 1.6 1.6 0.61 1.17 1.17 99 1005.6
20260510021002 12 286 3.2 3.2 0.30 1.12 1.12 99 1006.0
20260510020456 11 253 0.0 0.0 0.00 1.07 1.07 99 1005.1
20260510015952 11 169 1.6 1.6 0.00 1.07 1.07 99 1004.7
20260510015448 11 173 1.6 3.2 0.00 1.07 1.07 99 1004.5
20260510014943 11 186 0.0 0.0 0.00 1.07 1.07 99 1004.6
20260510014436 11 199 0.0 0.0 0.00 1.07 1.07 99 1004.8
20260510013932 11 207 0.0 0.0 0.00 1.07 1.07 99 1004.5
20260510013427 11 208 0.0 0.0 0.00 1.07 1.07 99 1004.4
20260510012923 11 208 0.0 0.0 0.00 1.07 1.07 99 1004.4
20260510012418 11 208 0.0 0.0 0.00 1.07 1.07 98 1004.2
20260510011913 11 208 0.0 0.0 0.00 1.07 1.07 98 1004.3
20260510011408 11 208 0.0 0.0 0.00 1.07 1.07 98 1004.2
20260510010904 11 209 0.0 1.6 0.00 1.07 1.07 98 1004.2
20260510010402 11 222 1.6 1.6 0.00 1.07 1.07 98 1004.0
20260510005858 12 222 0.0 0.0 0.00 1.07 1.07 97 1004.2
20260510005354 12 222 0.0 0.0 0.00 1.07 1.07 97 1004.1
20260510004852 12 222 0.0 0.0 0.00 1.07 1.07 97 1004.1
20260510004349 12 222 0.0 0.0 0.00 1.07 1.07 97 1004.1
20260510003847 12 245 1.6 1.6 0.00 1.07 1.07 96 1004.0
20260510003344 12 250 0.0 0.0 0.00 1.07 1.07 96 1004.0
20260510002842 12 242 0.0 1.6 0.00 1.07 1.07 96 1004.2
20260510002340 12 262 1.6 1.6 0.00 1.07 1.07 96 1003.9
20260510001837 12 242 3.2 8.0 0.00 1.07 1.07 95 1003.8
20260510001335 12 236 1.6 3.2 0.00 1.07 1.07 95 1004.0
20260510000831 12 226 3.2 4.8 0.00 1.07 1.07 95 1004.0
20260510000328 12 254 3.2 3.2 0.00 1.07 1.07 95 1004.2
20260509235825 12 240 1.6 1.6 0.00 1.07 1.07 95 1003.9
20260509235321 12 228 4.8 8.0 0.00 1.07 1.07 95 1004.2
20260509234817 12 244 3.2 3.2 0.13 1.07 1.07 96 1004.2
20260509234314 12 254 4.8 4.8 0.30 1.07 1.07 96 1004.2
20260509233812 12 268 1.6 3.2 0.30 1.04 1.04 96 1003.9
20260509233309 12 244 1.6 3.2 0.48 1.02 1.02 96 1004.3
20260509232805 12 236 3.2 3.2 0.66 0.99 0.99 96 1004.5
20260509232306 12 271 1.6 1.6 0.61 0.94 0.94 95 1004.6
20260509231759 12 297 9.7 14.5 0.71 0.89 0.89 95 1004.1
20260509231256 12 324 11.3 14.5 0.71 0.84 0.84 94 1004.1
20260509230754 13 342 14.5 17.7 0.97 0.76 0.76 92 1003.6
20260509230251 14 284 8.0 11.3 0.97 0.71 0.71 89 1003.9
20260509225745 15 316 8.0 11.3 0.61 0.61 0.61 82 1003.4
20260509225242 17 299 9.7 14.5 0.30 0.56 0.56 72 1002.7
20260509224738 20 236 8.0 12.9 0.00 0.51 0.51 56 1002.1
20260509224235 20 211 4.8 8.0 0.00 0.51 0.51 56 1001.7
20260509223732 20 194 8.0 9.7 0.00 0.51 0.51 56 1001.8
20260509223229 20 235 6.4 8.0 0.00 0.51 0.51 55 1001.5
20260509222726 20 233 16.1 17.7 0.00 0.51 0.51 54 1001.3
20260509222221 20 204 14.5 22.5 0.00 0.51 0.51 53 1001.3
20260509221717 20 246 20.9 25.7 0.00 0.51 0.51 53 1001.6
20260509221213 20 243 4.8 4.8 0.00 0.51 0.51 55 1001.6
20260509220709 20 224 9.7 12.9 0.00 0.51 0.51 55 1001.6
20260509220206 20 233 11.3 17.7 0.00 0.51 0.51 55 1001.4
20260509215701 20 215 11.3 12.9 0.00 0.51 0.51 56 1001.6
20260509215158 20 250 11.3 16.1 0.00 0.51 0.51 56 1001.6
20260509214656 20 230 9.7 12.9 0.00 0.51 0.51 56 1001.4
20260509214152 20 206 12.9 14.5 0.00 0.51 0.51 53 1001.4
20260509213649 20 219 6.4 9.7 0.00 0.51 0.51 55 1001.6
20260509213145 20 211 8.0 11.3 0.00 0.51 0.51 56 1001.4
20260509212643 20 224 11.3 12.9 0.00 0.51 0.51 56 1001.3
20260509212139 20 275 12.9 17.7 0.00 0.51 0.51 57 1001.1
20260509211635 20 207 16.1 22.5 0.00 0.51 0.51 57 1001.3
20260509211132 20 208 12.9 14.5 0.00 0.51 0.51 57 1001.5
20260509210629 20 215 12.9 17.7 0.00 0.51 0.51 57 1001.6
20260509210126 20 217 12.9 14.5 0.00 0.51 0.51 58 1001.6
20260509205621 20 194 12.9 14.5 0.00 0.51 0.51 58 1001.6
20260509205115 20 206 11.3 14.5 0.00 0.51 0.51 56 1001.8
20260509204612 20 228 8.0 11.3 0.00 0.51 0.51 58 1001.9
20260509204108 20 238 17.7 20.9 0.00 0.51 0.51 58 1001.9
20260509203604 20 196 12.9 14.5 0.00 0.51 0.51 58 1002.1
20260509203103 20 267 11.3 16.1 0.00 0.51 0.51 58 1002.3
20260509202603 20 228 8.0 9.7 0.00 0.51 0.51 58 1002.2
20260509202058 20 226 14.5 20.9 0.00 0.51 0.51 59 1002.1
20260509201553 20 201 16.1 20.9 0.00 0.51 0.51 59 1002.5
20260509201052 20 227 16.1 22.5 0.00 0.51 0.51 60 1002.4
20260509200550 20 162 9.7 12.9 0.00 0.51 0.51 61 1002.4
20260509200048 20 216 12.9 14.5 0.00 0.51 0.51 60 1002.6
20260509195543 20 176 12.9 16.1 0.00 0.51 0.51 59 1002.7
20260509195037 20 241 12.9 17.7 0.00 0.51 0.51 61 1002.4
20260509194532 20 222 9.7 11.3 0.00 0.51 0.51 61 1002.5
20260509194031 20 195 17.7 27.4 0.00 0.51 0.51 58 1003.0
20260509193531 20 240 9.7 14.5 0.00 0.51 0.51 59 1003.1
20260509193027 19 235 11.3 14.5 0.00 0.51 0.51 60 1003.0
20260509192524 20 248 12.9 14.5 0.00 0.51 0.51 60 1003.0
20260509192019 19 199 4.8 8.0 0.00 0.51 0.51 63 1003.2
20260509191514 19 208 12.9 17.7 0.00 0.51 0.51 62 1003.3
20260509191010 19 193 11.3 14.5 0.00 0.51 0.51 62 1003.3
20260509190507 19 203 8.0 11.3 0.00 0.51 0.51 62 1003.4
20260509190006 18 179 12.9 22.5 0.00 0.51 0.51 62 1003.6
20260509185502 18 224 12.9 16.1 0.00 0.51 0.51 62 1003.7
20260509184958 18 237 6.4 8.0 0.00 0.51 0.51 65 1003.7
20260509184457 18 213 9.7 12.9 0.00 0.51 0.51 64 1003.8
20260509183952 18 209 14.5 20.9 0.00 0.51 0.51 64 1003.7
20260509183447 18 233 11.3 14.5 0.00 0.51 0.51 64 1003.7
20260509182944 18 238 12.9 17.7 0.00 0.51 0.51 64 1003.8
20260509182440 18 212 8.0 11.3 0.00 0.51 0.51 65 1003.7
20260509181937 18 278 11.3 12.9 0.00 0.51 0.51 64 1003.7
20260509181435 18 197 11.3 14.5 0.00 0.51 0.51 64 1003.7
20260509180933 18 210 3.2 3.2 0.00 0.51 0.51 67 1003.6
20260509180428 18 245 8.0 12.9 0.00 0.51 0.51 65 1003.7
20260509175925 18 230 14.5 25.7 0.00 0.51 0.51 64 1003.7
20260509175421 18 216 9.7 12.9 0.00 0.51 0.51 64 1003.6
20260509174917 17 260 8.0 12.9 0.00 0.51 0.51 65 1003.7
20260509174414 17 205 4.8 8.0 0.00 0.51 0.51 66 1003.6
20260509173910 17 249 11.3 17.7 0.00 0.51 0.51 65 1004.0
20260509173409 17 202 11.3 12.9 0.00 0.51 0.51 65 1004.0
20260509172906 17 236 14.5 20.9 0.00 0.51 0.51 65 1004.3
20260509172403 17 250 6.4 9.7 0.00 0.51 0.51 66 1004.0
20260509171859 17 220 17.7 22.5 0.00 0.51 0.51 66 1004.0
20260509171355 17 235 8.0 11.3 0.00 0.51 0.51 68 1003.9
20260509170851 17 221 4.8 4.8 0.00 0.51 0.51 68 1003.9
20260509170347 17 248 6.4 9.7 0.00 0.51 0.51 68 1004.0
20260509165842 16 182 8.0 8.0 0.00 0.51 0.51 68 1004.1
20260509165336 16 218 9.7 12.9 0.00 0.51 0.51 68 1004.0
20260509164833 16 234 11.3 12.9 0.00 0.51 0.51 69 1003.9
20260509164329 16 241 4.8 9.7 0.00 0.51 0.51 71 1003.7
20260509163826 16 220 9.7 11.3 0.00 0.51 0.51 70 1003.8
20260509163322 16 244 6.4 11.3 0.00 0.51 0.51 67 1004.0
20260509162822 16 201 11.3 12.9 0.00 0.51 0.51 69 1003.8
20260509162314 16 237 6.4 9.7 0.00 0.51 0.51 71 1004.2
20260509161811 16 226 4.8 4.8 0.00 0.51 0.51 71 1004.4
20260509161307 16 225 6.4 8.0 0.00 0.51 0.51 71 1004.3
20260509160802 15 242 4.8 8.0 0.00 0.51 0.51 73 1004.5
20260509160259 15 259 6.4 8.0 0.00 0.51 0.51 74 1004.3
20260509155754 16 243 3.2 4.8 0.00 0.51 0.51 73 1004.5
20260509155251 16 239 4.8 4.8 0.00 0.51 0.51 71 1004.3
20260509154747 16 210 4.8 4.8 0.00 0.51 0.51 71 1004.4
20260509154244 15 222 3.2 3.2 0.00 0.51 0.51 74 1004.7
20260509153741 16 259 6.4 8.0 0.00 0.51 0.51 73 1004.4
20260509153237 15 273 3.2 3.2 0.00 0.51 0.51 76 1004.6
20260509152734 14 250 4.8 4.8 0.00 0.51 0.51 78 1004.5
20260509152230 15 233 4.8 4.8 0.00 0.51 0.51 80 1004.3
20260509151727 15 226 4.8 4.8 0.00 0.51 0.51 81 1004.4
20260509151224 15 236 3.2 3.2 0.00 0.51 0.51 82 1004.4
20260509150722 15 258 8.0 11.3 0.00 0.51 0.51 83 1004.5
20260509150220 15 282 4.8 4.8 0.00 0.51 0.51 82 1004.3
20260509145717 15 237 11.3 14.5 0.00 0.51 0.51 82 1004.4
20260509145211 14 237 8.0 9.7 0.00 0.51 0.51 84 1004.3
20260509144708 15 239 4.8 8.0 0.00 0.51 0.51 85 1004.2
20260509144205 13 262 1.6 3.2 0.00 0.51 0.51 88 1004.4
20260509143702 13 196 1.6 3.2 0.00 0.51 0.51 90 1004.4
20260509143200 13 207 1.6 1.6 0.00 0.51 0.51 90 1004.3